This is the latest recevied weather packets stored in our database for station/object YO2LDK-13. If no packets are shown the sender has not sent any weather packets the latest 10 day(s).
| Time | Temp. | Humidity | Pressure | Rain* | Wind** | Luminosity | Snow |
|---|---|---|---|---|---|---|---|
| 1777375220 | 21.67° C | 26% | 1008.8 hPa | 0 mm | - | 764 W/m² | - |
| 1777374620 | 21.11° C | 27% | 1008.5 hPa | 0 mm | - | 785 W/m² | - |
| 1777374319 | 21.67° C | 26% | 1008.8 hPa | 0 mm | - | 816 W/m² | - |
| 1777373720 | 22.22° C | 26% | 1008.5 hPa | 0 mm | - | 873 W/m² | - |
| 1777373420 | 22.22° C | 27% | 1008.8 hPa | 0 mm | - | 871 W/m² | - |
| 1777372519 | 20° C | 28% | 1008.8 hPa | 0 mm | - | 837 W/m² | - |
| 1777372220 | 20° C | 29% | 1009.1 hPa | 0 mm | - | 762 W/m² | - |
| 1777371919 | 21.67° C | 29% | 1009.1 hPa | 0 mm | - | 682 W/m² | - |
| 1777371620 | 21.11° C | 28% | 1009.1 hPa | 0 mm | - | 617 W/m² | - |
| 1777371319 | 20.56° C | 29% | 1009.1 hPa | 0 mm | - | 656 W/m² | - |
| 1777371020 | 21.11° C | 29% | 1009.1 hPa | 0 mm | - | 651 W/m² | - |
| 1777370720 | 20.56° C | 28% | 1009.1 hPa | 0 mm | - | 745 W/m² | - |
| 1777370420 | 21.11° C | 28% | 1009.1 hPa | 0 mm | - | 747 W/m² | - |
| 1777370119 | 20.56° C | 27% | 1009.5 hPa | 0 mm | - | 762 W/m² | - |
| 1777369819 | 20° C | 30% | 1009.5 hPa | 0 mm | - | 673 W/m² | - |
| 1777369521 | 20.56° C | 27% | 1009.5 hPa | 0 mm | - | 683 W/m² | - |
| 1777369219 | 20° C | 30% | 1009.5 hPa | 0 mm | - | 827 W/m² | - |
| 1777368920 | 19.44° C | 29% | 1009.5 hPa | 0 mm | - | 563 W/m² | - |
| 1777368620 | 20° C | 28% | 1009.5 hPa | 0 mm | - | 153 W/m² | - |
| 1777368321 | 19.44° C | 29% | 1009.5 hPa | 0 mm | - | 159 W/m² | - |
| 1777368020 | 19.44° C | 28% | 1009.5 hPa | 0 mm | - | 261 W/m² | - |
| 1777367719 | 19.44° C | 27% | 1009.5 hPa | 0 mm | - | 77 W/m² | - |
| 1777367419 | 18.89° C | 29% | 1009.5 hPa | 0 mm | - | 88 W/m² | - |
| 1777366519 | 18.89° C | 33% | 1009.5 hPa | 0 mm | - | 80 W/m² | - |
| 1777366219 | 18.33° C | 29% | 1009.5 hPa | 0 mm | - | 79 W/m² | - |
* Rain latest hour (hover to see other rain measurements)
** Current wind speed in m/s (hover to see current wind gust speed)